Dewpoint
-14 -19 -17 -16 -6 1 3 4 4 5 6 6 6 6 8 5 5 6 5 5 4 2 -2 -2 -6 -14 -11
-19 -21 -20 -18 -17 -16 -12 0 3 4 5 5 6 7 7 7 6 5 6 6 5 4 1 -1 -2 -12 -12
-26 -24 -22 -19 -17 -16 -14 -12 -4 2 3 4 5 6 7 7 6 4 5 6 6 5 4 1 -0 -7 -13
-19 -20 -20 -17 -17 -13 -14 -10 -13 -7 1 2 3 4 6 7 7 4 4 5 6 6 4 3 1 -2 -14
-18 -19 -16 -16 -15 -13 -13 -8 -11 -7 -2 -1 1 3 4 5 6 6 4 5 5 5 5 4 3 -0 -11
-19 -14 -11 -8 -12 -13 -17 -17 -15 -14 -11 -14 -9 -2 2 4 5 5 5 5 5 5 5 5 4 2 -7
-30 -21 -16 -11 -10 -20 -20 -15 -16 -25 -16 -16 -14 -12 -6 1 3 4 5 4 4 5 5 5 5 3 -3
-36 -35 -31 -27 -25 -17 -23 -27 -28 -20 -9 -11 -17 -13 -13 -9 0 3 3 4 4 4 5 5 5 4 -1
-28 -29 -32 -32 -30 -25 -21 -15 -27 -29 -17 -6 -6 -3 -2 -8 -4 1 3 3 4 4 4 4 5 4 -1
-13 -13 -21 -26 -27 -25 -27 -15 -10 -16 -9 -11 -16 -9 -3 -1 -1 1 1 2 2 3 3 3 4 3 -1
-13 -12 -12 -21 -26 -27 -20 -18 -22 -16 -22 -15 -17 -14 -7 -4 -3 -1 -1 1 2 1 1 2 3 2 -3
-10 -12 -15 -20 -20 -22 -24 -27 -28 -29 -26 -15 -17 -12 -8 -8 -4 -3 -2 -0 0 1 -0 0 0 -1 -5
-12 -15 -17 -16 -13 -21 -27 -32 -33 -29 -26 -15 -10 -8 -6 -5 -5 -4 -3 -1 -1 -0 -1 -1 -1 -1 -4
-12 -14 -16 -17 -14 -12 -24 -18 -22 -30 -30 -27 -15 -8 -6 -5 -4 -4 -3 -2 -1 -1 -1 -1 -1 -1 -4
-12 -12 -13 -12 -13 -21 -12 -17 -32 -34 -37 -29 -23 -15 -9 -5 -4 -4 -3 -2 -2 -2 -2 -2 -2 -2 -3
-13 -13 -13 -14 -15 -14 -22 -21 -17 -30 -18 -18 -22 -23 -14 -8 -5 -3 -3 -3 -2 -2 -2 -3 -2 -2 -2
-14 -14 -15 -15 -15 -23 -28 -15 -18 -27 -30 -19 -11 -11 -9 -8 -6 -5 -4 -3 -3 -2 -2 -3 -2 -2 -1
Wind_Speed
20 19 20 22 24 27 28 25 25 26 28 32 30 29 25 26 32 30 31 31 28 25 24 25 23 23 21
23 23 21 20 23 23 25 27 29 27 31 31 31 30 29 27 30 32 32 30 29 27 25 24 24 24 22
24 24 24 22 22 21 22 24 28 29 28 31 31 29 32 33 29 30 31 30 31 29 28 26 25 25 22
21 23 24 24 25 26 27 24 25 25 26 27 26 25 25 28 28 29 27 30 32 32 29 28 26 26 23
23 25 24 26 27 27 29 34 34 20 22 28 30 26 25 23 25 26 26 28 31 34 32 31 28 26 24
19 21 22 23 24 29 32 36 43 33 32 34 32 33 27 25 26 25 25 25 31 34 35 32 30 27 25
22 20 22 22 26 32 30 33 37 42 41 42 34 33 29 28 26 25 28 28 27 31 35 34 32 29 26
21 23 25 26 28 30 33 35 38 37 30 38 36 36 30 28 28 28 29 30 27 27 33 35 32 30 27
23 24 25 26 26 28 28 28 36 38 35 26 26 29 30 29 22 23 26 31 27 25 29 36 33 31 30
23 24 25 25 24 23 23 26 26 33 14 25 35 31 27 26 16 17 22 23 23 25 30 34 34 31 32
25 24 23 25 25 24 23 24 28 31 35 31 38 35 31 38 38 32 28 24 24 24 29 32 35 32 33
23 24 28 29 27 24 23 27 28 33 33 28 34 31 35 39 40 37 34 28 25 24 28 34 34 33 31
25 29 29 27 26 32 29 27 31 30 29 26 26 28 29 36 39 41 41 35 26 25 28 33 36 36 34
29 32 29 30 26 24 32 25 28 33 31 27 28 26 30 33 34 37 40 39 37 30 27 32 37 36 36
25 26 25 21 25 29 24 30 34 36 36 32 25 26 28 32 33 35 35 37 35 33 30 32 36 39 37
28 26 26 29 28 26 32 29 32 34 31 33 33 31 29 30 30 28 32 37 34 34 32 34 38 39 40
31 33 34 32 32 39 36 27 34 35 35 30 25 24 27 30 27 27 29 29 28 33 32 34 38 38 35
Wind_Direction
311 313 306 302 286 280 279 287 288 284 285 285 290 290 285 283 269 261 260 264 267 274 276 282 286 289 293
316 319 317 308 304 300 290 280 279 282 281 286 287 280 283 287 276 265 260 263 265 268 272 275 281 283 289
314 316 318 320 310 302 301 296 287 277 278 286 286 289 278 276 278 265 259 261 264 265 267 271 276 279 284
317 318 321 323 321 320 314 309 299 290 281 288 293 286 287 272 278 271 257 257 258 262 265 266 269 274 277
319 322 324 324 326 322 314 310 309 312 290 279 280 284 281 292 282 274 263 250 253 259 262 264 265 268 272
309 312 315 315 317 312 314 312 316 313 308 296 296 285 288 287 284 285 276 254 249 254 258 262 262 263 265
302 304 303 309 306 310 309 307 306 308 312 303 302 299 293 283 282 283 276 271 254 249 254 258 260 259 261
295 296 295 298 302 304 305 305 303 305 306 302 305 304 303 297 281 278 285 285 257 249 249 253 256 259 255
294 292 295 297 299 301 303 302 301 300 305 306 310 315 306 302 295 291 283 287 272 253 249 247 249 254 254
296 295 294 294 297 297 296 294 297 305 288 290 296 309 318 306 305 289 301 291 286 257 251 248 247 245 249
291 291 291 295 294 293 285 282 286 281 288 297 298 298 283 285 294 300 293 296 291 279 259 248 248 242 244
283 287 294 296 294 290 285 288 285 283 289 294 290 291 291 287 283 291 294 291 290 283 264 251 244 243 238
279 287 290 293 290 292 291 288 286 282 281 288 287 287 284 286 285 280 284 284 284 280 267 255 247 245 237
279 284 284 290 294 286 300 293 285 286 284 284 285 282 278 276 282 278 277 276 277 276 270 261 250 244 244
274 276 287 283 284 299 284 290 293 292 292 296 288 280 269 275 275 276 275 278 275 273 267 262 254 246 240
270 271 271 280 289 285 290 294 287 290 292 288 295 293 282 265 266 279 276 277 276 271 265 259 254 250 239
262 265 274 276 282 292 294 281 283 288 288 293 289 287 291 291 285 279 284 288 282 272 266 260 254 253 248
Height
1542 1540 1539 1537 1536 1535 1536 1533 1532 1532 1530 1532 1529 1528 1525 1526 1528 1527 1527 1528 1528 1530 1528 1531 1529 1528 1526
1538 1535 1534 1533 1530 1529 1530 1529 1527 1526 1527 1524 1523 1521 1520 1521 1520 1520 1520 1522 1523 1525 1523 1524 1525 1524 1522
1536 1534 1531 1529 1528 1527 1525 1522 1522 1521 1520 1516 1517 1513 1514 1514 1512 1512 1512 1514 1517 1518 1518 1518 1519 1519 1518
1537 1534 1530 1526 1523 1518 1516 1516 1514 1513 1513 1514 1511 1509 1509 1506 1505 1504 1504 1505 1510 1512 1512 1513 1513 1514 1514
1532 1530 1528 1524 1520 1516 1512 1508 1507 1509 1505 1504 1502 1504 1502 1500 1498 1497 1496 1498 1501 1504 1506 1506 1506 1508 1509
1529 1527 1527 1525 1521 1515 1511 1507 1503 1503 1501 1499 1499 1495 1493 1496 1494 1491 1489 1491 1492 1494 1499 1500 1501 1501 1502
1527 1524 1522 1522 1520 1515 1512 1508 1505 1502 1499 1491 1494 1490 1491 1489 1487 1484 1484 1484 1483 1485 1492 1492 1494 1495 1496
1523 1521 1519 1517 1515 1513 1509 1504 1500 1499 1497 1487 1487 1481 1481 1479 1478 1477 1478 1479 1478 1477 1482 1485 1486 1488 1489
1517 1515 1513 1511 1510 1508 1506 1501 1494 1491 1491 1486 1482 1477 1473 1470 1471 1473 1470 1473 1471 1471 1472 1477 1478 1481 1485
1511 1511 1508 1505 1502 1501 1500 1497 1493 1487 1486 1482 1480 1478 1469 1467 1467 1467 1465 1464 1465 1465 1467 1468 1470 1472 1479
1501 1501 1500 1500 1497 1494 1494 1491 1487 1483 1482 1479 1471 1471 1473 1465 1461 1462 1462 1461 1459 1459 1460 1461 1463 1466 1473
1495 1495 1494 1489 1490 1487 1486 1483 1480 1476 1475 1473 1466 1465 1464 1459 1458 1455 1454 1454 1452 1453 1454 1455 1456 1460 1464
1488 1486 1485 1482 1481 1481 1477 1475 1471 1469 1467 1464 1462 1460 1460 1455 1452 1449 1448 1448 1447 1447 1449 1449 1448 1452 1454
1479 1479 1474 1472 1473 1475 1468 1468 1461 1457 1456 1455 1456 1454 1450 1450 1447 1443 1441 1442 1441 1442 1442 1441 1443 1444 1448
1470 1471 1467 1466 1465 1464 1463 1458 1452 1448 1444 1444 1447 1445 1442 1441 1438 1437 1435 1434 1432 1434 1435 1434 1434 1436 1440
1463 1461 1458 1458 1457 1456 1452 1448 1444 1441 1438 1437 1437 1434 1431 1430 1432 1429 1427 1427 1425 1425 1427 1426 1426 1427 1431
1455 1451 1450 1449 1448 1445 1443 1439 1436 1434 1431 1431 1432 1430 1426 1421 1422 1423 1420 1420 1418 1417 1417 1416 1417 1418 1421